Sacramento, CA

5:46 PM PST on December 05, 2016 (GMT -0800)
Sacramento Executive

Weather History for KSAC - August, 2014

Change the Weather History Date:

Saturday, August 23, 2014

  Actual Average Record
Temperature  
Mean Temperature 74 °F -  
Max Temperature 91 °F 91 °F 101 °F (1996)
Min Temperature 56 °F 58 °F 51 °F (1973)
Degree Days  
Heating Degree Days 0    
Cooling Degree Days 9    
Growing Degree Days 23 (Base 50)    
Moisture  
Dew Point 55 °F    
Average Humidity 60    
Maximum Humidity 93    
Minimum Humidity 27    
Precipitation  
Precipitation 0.00 in 0.00 in 0.00 in (2016)
Month to date precipitation T 0.03  
Year to date precipitation 7.90 11.93  
Since 1 July precipitation 0.01  
Sea Level Pressure  
Sea Level Pressure 29.86 in    
Wind  
Wind Speed 5 mph (SSW)    
Max Wind Speed 10 mph    
Max Gust Speed 14 mph    
Visibility 10 miles    
Events      
T = Trace of Precipitation, MM = Missing Value Source: NWS Daily Summary

Daily Weather History Graph

Daily Weather History Graph

Search for Another Location

Airport or City:

Trip Planner

Search our weather history database for the weather conditions in past years. The results will help you decide how hot, cold, wet, or windy it might be!

Date:

Astronomy

Aug. 23, 2014 Rise Set
Actual Time 6:27 AM PDT 7:48 PM PDT
Civil Twilight 5:59 AM PDT 8:16 PM PDT
Nautical Twilight 5:26 AM PDT 8:49 PM PDT
Astronomical Twilight 4:51 AM PDT 9:24 PM PDT
Moon 4:48 AM PDT (8/23) 6:36 PM PDT (8/23)
Length of Visible Light 14h 16m
Length of Day
13h 21m
Waning Crescent, 3% of the Moon is Illuminated
Aug 23
Waning Crescent
Aug 25
New
Sep 2
First Quarter
Sep 8
Full
Sep 15
Last Quarter

Hourly Weather History & Observations

Time (PDT) Temp. Heat Index Dew Point Humidity Pressure Visibility Wind Dir Wind Speed Gust Speed Precip Events Conditions
12:53 AM 60.1 °F - 55.0 °F 83% 29.87 in 10.0 mi South 4.6 mph - N/A   Clear
1:53 AM 60.8 °F - 55.4 °F 82% 29.87 in 10.0 mi SSE 4.6 mph - N/A   Clear
2:53 AM 60.1 °F - 55.0 °F 83% 29.87 in 10.0 mi South 5.8 mph - N/A   Clear
4:53 AM 59.0 °F - 55.4 °F 88% 29.87 in 10.0 mi South 3.5 mph - N/A   Clear
5:53 AM 57.9 °F - 54.0 °F 87% 29.88 in 10.0 mi SW 5.8 mph - N/A   Clear
6:53 AM 57.0 °F - 53.1 °F 87% 29.90 in 10.0 mi West 3.5 mph - N/A   Clear
7:14 AM 57.2 °F - 53.6 °F 88% 29.91 in 10.0 mi Calm Calm - N/A   Scattered Clouds
7:23 AM 57.2 °F - 53.6 °F 88% 29.91 in 10.0 mi West 4.6 mph - N/A   Mostly Cloudy
7:53 AM 57.9 °F - 55.0 °F 90% 29.93 in 10.0 mi West 3.5 mph - N/A   Overcast
8:28 AM 60.8 °F - 55.4 °F 82% 29.92 in 10.0 mi Calm Calm - N/A   Scattered Clouds
8:53 AM 62.1 °F - 55.9 °F 80% 29.93 in 10.0 mi Calm Calm - N/A   Clear
9:53 AM 66.9 °F - 55.9 °F 68% 29.93 in 10.0 mi WSW 3.5 mph - N/A   Clear
10:53 AM 71.1 °F - 57.0 °F 61% 29.93 in 10.0 mi South 4.6 mph - N/A   Clear
11:53 AM 75.9 °F - 57.9 °F 54% 29.91 in 10.0 mi South 4.6 mph - N/A   Clear
12:53 PM 81.0 °F 80.8 °F 55.9 °F 42% 29.88 in 10.0 mi Calm Calm - N/A   Clear
1:53 PM 86.0 °F 84.7 °F 55.9 °F 36% 29.86 in 10.0 mi Calm Calm - N/A   Clear
2:53 PM 88.0 °F 85.7 °F 53.1 °F 30% 29.83 in 10.0 mi Variable 6.9 mph - N/A   Clear
3:53 PM 89.1 °F - 52.0 °F 28% 29.81 in 10.0 mi Variable 6.9 mph - N/A   Clear
4:53 PM 89.1 °F 86.7 °F 53.1 °F 29% 29.80 in 10.0 mi SSW 8.1 mph - N/A   Clear
5:53 PM 89.1 °F - 51.1 °F 27% 29.79 in 10.0 mi SSW 6.9 mph - N/A   Clear
6:53 PM 84.9 °F - 46.0 °F 26% 29.78 in 10.0 mi SW 10.4 mph - N/A   Clear
7:53 PM 78.1 °F - 53.1 °F 42% 29.79 in 10.0 mi SSW 9.2 mph - N/A   Clear
8:53 PM 71.1 °F - 55.0 °F 57% 29.80 in 10.0 mi SW 10.4 mph - N/A   Clear
9:53 PM 69.1 °F - 57.0 °F 65% 29.80 in 10.0 mi SSW 9.2 mph - N/A   Clear
10:53 PM 66.9 °F - 57.0 °F 70% 29.80 in 10.0 mi SW 5.8 mph - N/A   Clear
11:53 PM 64.9 °F - 55.9 °F 73% 29.81 in 10.0 mi South 4.6 mph - N/A   Clear